Voltar ao catálogo

STARLINK-36685

AtivoComunicaçõesVLEO
NORAD 68717·PAYLOAD·🇺🇸 United States

Lançado Apr 14, 2026 de Cape Canaveral Space Force Station

Loading…

Próximas Passagens (próximas 24 horas)

TLE

AtualizadoSource: CelesTrak SupGP

Época: Sep 15, 2026, 03:38 UTC

1 68717C 26081U   26258.15187500 -.00055201  00000+0 -16310-2 0  2581
2 68717  53.1588 230.6458 0001394  90.5421  81.3211 15.34417266    13

Acompanhe STARLINK-36685 em tempo real com AllMySat

Download on the App Store